Location: Oberkirch
(48.5323°N, 8.0787°E)
Time: 16:07:42
(UTC+00:00)

Tiros 1 despin weight - Pass Details

Date: 13 February 2026
Orbit: 556 x 593 km, 48.2° (Epoch: 8 March)

Event Time Altitude Azimuth Distance (km) Brightness Sun altitude
Rises 20:15:14 0° 280° (W) 2,736 ? -34.8°
Reaches altitude 10° 20:17:29 10° 278° (W) 1,842 ? -35.1°
Enters shadow 20:18:10 14° 276° (W) 1,576 ? -35.2°
